TimeMDT,TemperatureF,Dew PointF,Humidity,Sea Level PressureIn,VisibilityMPH,Wind Direction,Wind SpeedMPH,Gust SpeedMPH,PrecipitationIn,Events,Conditions,WindDirDegrees,DateUTC
12:53 AM,35.1,12.9,40,29.21,10.0,SW,18.4,28.8,N/A,,Clear,220,2012-03-19 06:53:00
1:53 AM,36.0,10.0,34,29.18,10.0,West,26.5,38.0,N/A,,Clear,260,2012-03-19 07:53:00
2:53 AM,35.1,10.0,35,29.19,10.0,SSW,19.6,41.4,N/A,,Clear,200,2012-03-19 08:53:00
3:53 AM,35.1,9.0,34,29.19,10.0,NE,12.7,20.7,N/A,,Clear,40,2012-03-19 09:53:00
4:53 AM,35.1,9.0,34,29.19,10.0,WSW,31.1,43.7,N/A,,Clear,240,2012-03-19 10:53:00
5:53 AM,34.0,9.0,35,29.20,10.0,SW,26.5,38.0,N/A,,Clear,220,2012-03-19 11:53:00
6:53 AM,35.1,9.0,34,29.23,10.0,North,12.7,19.6,N/A,,Mostly Cloudy,360,2012-03-19 12:53:00
7:53 AM,37.0,6.1,28,29.26,10.0,West,11.5,47.2,N/A,,Squalls,280,2012-03-19 13:53:00
8:53 AM,37.9,8.1,29,29.28,10.0,West,13.8,24.2,N/A,,Mostly Cloudy,260,2012-03-19 14:53:00
9:53 AM,39.0,6.1,26,29.31,10.0,WNW,19.6,29.9,N/A,,Overcast,290,2012-03-19 15:53:00
10:53 AM,39.9,7.0,26,29.34,10.0,NW,13.8,18.4,N/A,,Overcast,310,2012-03-19 16:53:00
11:53 AM,41.0,8.1,26,29.37,10.0,North,10.4,24.2,N/A,,Overcast,350,2012-03-19 17:53:00
12:53 PM,41.0,7.0,25,29.40,10.0,West,11.5,-,N/A,,Overcast,270,2012-03-19 18:53:00
1:53 PM,41.0,9.0,27,29.41,10.0,NNW,17.3,24.2,N/A,,Overcast,340,2012-03-19 19:53:00
2:53 PM,42.1,10.9,28,29.42,10.0,Variable,4.6,-,N/A,,Overcast,0,2012-03-19 20:53:00
3:53 PM,41.0,10.9,29,29.46,10.0,WNW,5.8,-,N/A,,Overcast,290,2012-03-19 21:53:00
4:53 PM,43.0,10.0,26,29.48,10.0,North,10.4,-,N/A,,Overcast,350,2012-03-19 22:53:00
5:53 PM,39.0,18.0,43,29.53,10.0,NE,8.1,-,N/A,,Overcast,50,2012-03-19 23:53:00
6:53 PM,36.0,24.1,62,29.59,10.0,ENE,10.4,-,N/A,,Overcast,70,2012-03-20 00:53:00
7:53 PM,32.0,26.1,79,29.65,10.0,ENE,8.1,-,N/A,,Mostly Cloudy,70,2012-03-20 01:53:00
8:53 PM,30.9,25.0,79,29.69,10.0,Calm,Calm,-,N/A,,Clear,0,2012-03-20 02:53:00
9:53 PM,30.0,25.0,82,29.73,10.0,Calm,Calm,-,N/A,,Clear,0,2012-03-20 03:53:00
10:53 PM,28.0,24.1,85,29.77,10.0,Calm,Calm,-,N/A,,Mostly Cloudy,0,2012-03-20 04:53:00
11:53 PM,28.0,24.1,85,29.77,10.0,ESE,3.5,-,N/A,,Clear,120,2012-03-20 05:53:00